{"data":{"norad_id":67896,"intl_designator":"2026-035T","name":"STARLINK-36877","alt_names":[],"object_type":"PAYLOAD","status":"ACTIVE","operator":null,"country":"US","launch_date":"2026-02-21","launch_site_code":"AFWTR","launch_vehicle":null,"mission":null,"orbit_class":"UNKNOWN","rcs_meters":null,"size_class":null,"mass_kg":null,"dimensions":null,"purposes":["comms"],"wikipedia_slug":null,"has_3d_model":false,"image_url":null,"decayed_at":null,"tle_current":{"epoch":"2026-05-25T01:12:42.432768Z","epoch_age_seconds":66639,"freshness":"FRESH","line1":"1 67896U 26035T   26145.05049112  .00030088  00000+0  92936-3 0  9992","line2":"2 67896  97.2851  78.6269 0001656 104.2063 255.9364 15.33487246 15690","mean_motion":15.33487246,"eccentricity":0.0001656,"inclination_deg":97.2851,"raan_deg":78.6269,"arg_perigee_deg":104.2063,"mean_anomaly_deg":255.9364,"bstar":0.00092936,"rev_number":1569,"period_min":93.903617637261,"perigee_km":464.28419036797,"apogee_km":466.55077561274,"semimajor_km":6843.5544829904,"source":"CELESTRAK","updated_at":"2026-05-25T13:38:21.735386Z"}}}